Location: Silent Lake
(44.9206°N, 78.0708°W)
Time: 16:09:53
(UTC-04:00)

NOSS 3-3 (A) - Pass Details

Date: 19 April 2018
Orbit: 880 x 1333 km, 63.4° (Epoch: 07 September)

Event Time Altitude Azimuth Distance (km) Brightness Sun altitude
Rises 20:53:02 0° 197° (SSW) 3,491 6.8 -9.1°
Reaches altitude 10° 20:55:30 10° 192° (SSW) 2,583 6.1 -9.5°
Maximum altitude 21:01:15 50° 118° (ESE) 1,203 4.1 -10.4°
Drops below altitude 10° 21:07:33 10° 46° (NE) 2,833 6.3 -11.4°
Sets 21:10:23 0° 41° (NE) 3,859 7.0 -11.8°
